Wind_Speed
40 40 41 41 41 43 44 45 45 44 43 44 45 45 46 47 48 49 49 49 49 48 47 47 46 45 44 44 44 44 44 44 43 42 42 41 40 39
42 42 41 41 42 43 44 45 46 45 44 44 45 46 47 47 47 47 47 48 48 48 47 46 46 44 44 43 43 43 43 43 42 41 40 39 37 35
42 42 42 42 43 45 45 45 45 45 45 44 45 46 46 46 46 46 47 47 46 46 46 45 44 43 43 42 41 41 41 41 41 39 38 35 34 34
42 42 42 42 43 45 45 45 45 45 45 45 45 45 46 46 46 46 47 46 46 45 44 43 43 42 40 40 40 39 39 40 39 37 35 35 34 33
40 41 41 43 44 45 45 44 44 45 45 45 44 44 46 46 46 47 47 46 45 44 43 42 40 39 39 39 39 39 39 39 38 35 34 34 33 31
40 41 42 43 43 44 43 43 44 44 44 44 44 44 45 45 45 45 44 44 44 43 42 40 39 38 38 39 39 38 37 36 35 33 32 31 29 29
40 41 41 41 42 42 42 42 42 42 42 43 44 44 44 43 44 43 43 42 42 42 40 38 38 39 39 38 38 37 36 34 33 32 31 29 28 27
41 41 41 41 42 41 41 41 41 41 41 43 43 43 42 43 43 42 42 41 41 40 37 36 37 37 37 36 36 36 34 33 33 32 30 29 28 28
41 41 41 42 41 40 40 39 39 40 41 42 42 42 42 41 41 42 42 41 40 38 35 35 35 36 36 35 34 33 33 32 32 31 29 28 28 28
40 40 40 40 39 39 38 39 39 40 41 41 41 41 41 41 40 41 40 40 38 36 35 35 35 35 35 34 32 31 32 31 31 29 28 27 27 27
38 38 38 38 38 38 38 39 39 40 41 40 40 41 40 40 40 39 38 37 36 35 34 35 34 33 33 33 31 30 29 29 29 28 27 27 26 26
37 37 37 36 36 37 37 37 37 38 39 38 38 39 38 38 38 38 37 36 34 33 33 33 33 32 30 29 28 27 27 27 28 27 26 25 26 25
37 37 36 36 36 36 36 37 37 37 37 37 37 37 37 37 37 36 35 34 33 31 31 31 30 30 28 26 25 25 26 26 26 26 26 25 25 25
36 36 36 36 36 36 36 36 36 36 36 36 36 36 36 36 35 34 33 32 30 30 30 29 29 28 27 26 25 25 25 25 25 25 25 24 24 23
35 36 36 35 34 35 35 35 36 36 36 36 35 34 34 33 32 31 30 30 29 28 28 27 26 25 25 25 25 25 24 24 24 23 24 23 22 21
36 36 35 34 33 33 33 34 35 35 34 33 33 32 32 30 29 28 28 28 26 26 26 25 24 24 24 24 24 23 23 22 22 23 23 23 21 18
35 34 34 33 33 32 32 33 33 33 32 31 30 30 29 28 27 27 26 25 24 24 24 23 23 23 23 22 22 22 22 22 22 22 21 21 18 16
33 33 32 32 31 31 31 32 32 32 30 29 29 28 27 26 25 24 24 22 22 22 22 22 22 22 21 21 21 20 21 22 22 21 19 18 16 14
31 30 30 29 29 29 30 30 30 30 29 28 27 26 25 24 23 23 22 21 20 20 20 20 21 21 20 20 19 20 20 20 21 20 19 17 14 13
29 28 28 28 28 28 29 29 29 28 27 25 24 23 23 22 21 21 19 19 19 19 19 20 20 20 20 20 19 18 19 19 19 18 17 17 15 13
27 27 27 27 28 28 28 27 26 25 23 22 22 21 20 19 19 19 18 18 18 18 19 19 19 19 19 18 17 17 18 18 18 17 17 16 14 13
26 26 26 26 26 25 25 24 24 22 21 20 19 19 18 18 18 17 16 17 17 17 17 17 17 17 16 16 16 15 16 16 16 16 17 16 14 13
25 25 25 24 24 23 23 22 21 20 19 18 17 16 15 16 15 15 15 16 16 15 15 15 15 14 14 14 14 14 14 15 15 15 15 14 14 13
Wind_Direction
286 287 289 291 293 294 297 298 299 300 301 302 304 306 307 309 310 310 310 311 311 312 313 313 313 312 311 310 310 309 308 306 305 304 302 300 299 297
285 286 289 290 292 295 298 299 299 301 302 303 305 306 308 309 310 312 312 312 311 311 312 313 313 312 312 312 312 311 311 310 308 305 304 302 300 299
285 286 287 289 291 295 297 298 300 301 303 304 305 306 308 309 311 312 312 313 312 312 313 313 314 313 314 314 314 313 312 311 309 307 305 304 302 301
284 285 287 289 291 294 295 297 299 300 302 304 305 307 308 310 311 312 313 313 314 314 314 315 315 315 314 315 316 316 316 315 313 311 307 306 304 303
284 285 287 289 291 293 294 296 298 301 303 304 305 307 309 310 312 313 313 314 315 315 315 315 316 316 316 317 317 317 317 316 315 313 309 307 306 304
284 287 289 290 291 293 294 295 297 300 302 304 306 308 309 310 311 313 313 314 316 316 316 316 316 318 318 317 318 318 318 318 317 317 315 312 309 307
284 287 289 291 292 293 293 295 296 299 301 303 305 307 309 310 311 313 314 316 316 317 316 315 316 317 318 318 318 319 320 320 321 320 318 316 313 312
283 286 288 290 292 293 294 295 296 299 301 303 305 307 308 310 311 313 315 316 316 316 316 316 317 318 318 317 318 319 319 320 321 321 319 317 315 314
282 284 286 288 290 292 294 296 297 300 302 304 305 306 308 310 312 313 314 315 316 316 316 317 318 319 318 318 318 320 321 321 322 321 319 318 316 314
282 284 285 287 288 290 292 295 297 300 303 304 305 306 308 310 312 313 314 316 317 316 317 319 319 320 319 318 318 319 320 321 322 322 320 318 317 317
281 282 284 286 287 289 292 295 297 301 303 305 305 306 308 310 311 313 314 315 316 316 317 318 319 319 320 320 319 320 320 321 323 323 321 319 319 318
280 282 284 284 286 289 292 295 297 300 302 304 305 307 310 311 312 313 313 314 315 314 315 317 318 319 321 321 322 324 324 325 326 325 322 321 321 320
279 281 282 284 287 289 292 294 296 298 301 303 305 307 310 312 313 312 313 315 316 315 315 317 318 320 322 323 325 326 327 327 327 326 324 323 324 324
277 280 282 284 286 289 292 294 296 298 300 302 304 306 309 310 312 312 312 314 316 316 316 317 319 321 322 323 325 328 328 328 328 329 329 328 328 328
276 279 281 283 285 289 291 293 296 298 301 302 304 306 308 310 311 312 313 313 314 317 319 320 321 322 323 324 325 327 328 329 330 331 332 333 333 333
277 278 279 281 285 288 290 293 296 298 301 303 305 307 309 309 311 313 313 313 313 316 320 322 323 324 324 325 326 327 329 330 331 332 332 332 334 336
276 276 277 280 284 287 289 293 296 299 301 302 304 306 307 308 311 313 314 314 314 316 318 320 324 326 326 327 329 331 333 333 332 332 333 334 336 338
274 276 277 280 283 286 289 292 295 298 300 301 302 303 305 307 311 313 314 314 315 317 319 322 323 325 327 330 332 333 335 337 338 338 337 339 340 342
274 276 277 279 282 286 289 293 295 298 299 300 301 301 302 305 309 312 314 315 317 320 324 327 328 328 328 330 333 334 337 340 343 345 345 346 350 354
275 276 277 279 282 286 290 293 295 296 297 299 300 301 302 305 309 312 314 316 318 320 324 326 329 331 332 333 335 339 342 344 346 349 352 356 360 2
276 277 278 281 284 287 290 292 294 295 295 297 298 299 301 304 309 312 313 315 318 320 323 325 328 332 336 339 341 343 344 345 349 355 359 1 5 8
274 277 279 281 283 285 287 289 291 291 292 295 297 299 300 303 306 309 311 314 318 321 323 327 330 335 340 344 347 351 355 355 357 0 3 8 13 18
274 276 278 279 281 282 283 286 288 289 290 292 297 300 300 303 305 308 310 315 319 323 328 333 338 341 346 351 355 360 2 3 5 7 10 16 22 30
Height
5732 5730 5728 5726 5723 5720 5717 5713 5709 5706 5703 5697 5691 5685 5679 5673 5667 5660 5654 5647 5640 5633 5626 5619 5612 5605 5599 5593 5586 5580 5574 5568 5562 5557 5552 5548 5544 5540
5723 5721 5719 5717 5713 5710 5707 5702 5698 5694 5691 5687 5681 5675 5669 5663 5656 5650 5643 5636 5629 5622 5616 5609 5602 5595 5589 5582 5576 5569 5563 5557 5551 5546 5541 5537 5533 5529
5713 5711 5709 5707 5704 5700 5696 5692 5688 5684 5680 5677 5671 5665 5659 5653 5647 5640 5633 5626 5619 5612 5605 5598 5592 5586 5579 5573 5566 5560 5554 5547 5541 5536 5531 5527 5523 5519
5703 5701 5699 5697 5694 5690 5686 5682 5678 5674 5670 5666 5661 5655 5649 5643 5637 5631 5624 5617 5610 5603 5596 5589 5583 5577 5570 5564 5558 5551 5545 5539 5533 5527 5522 5518 5514 5510
5693 5691 5689 5686 5683 5680 5676 5672 5668 5664 5660 5655 5651 5645 5640 5634 5628 5621 5614 5607 5600 5593 5587 5580 5574 5568 5562 5556 5550 5544 5537 5531 5525 5519 5513 5509 5505 5501
5683 5681 5678 5676 5672 5669 5666 5662 5659 5655 5650 5646 5641 5636 5630 5624 5618 5613 5606 5599 5592 5585 5579 5573 5566 5560 5554 5549 5543 5537 5530 5523 5517 5512 5506 5501 5497 5493
5673 5671 5668 5665 5662 5659 5655 5652 5649 5646 5641 5637 5632 5627 5621 5615 5610 5604 5597 5591 5585 5578 5572 5566 5559 5554 5547 5541 5535 5529 5523 5517 5511 5505 5500 5495 5490 5486
5663 5661 5658 5656 5652 5649 5645 5642 5639 5636 5632 5628 5623 5618 5612 5606 5600 5595 5589 5584 5578 5572 5565 5559 5552 5546 5540 5534 5528 5522 5516 5510 5505 5499 5494 5489 5484 5480
5653 5651 5649 5646 5643 5640 5637 5634 5630 5626 5623 5618 5614 5608 5603 5598 5593 5587 5581 5575 5569 5562 5557 5552 5546 5540 5534 5527 5521 5516 5510 5504 5499 5493 5488 5483 5478 5474
5643 5641 5639 5636 5634 5632 5629 5626 5622 5618 5614 5610 5606 5600 5594 5588 5583 5578 5573 5568 5562 5555 5549 5545 5540 5534 5527 5521 5515 5509 5504 5499 5493 5488 5482 5477 5473 5468
5632 5631 5629 5627 5625 5623 5620 5618 5614 5610 5605 5601 5596 5591 5586 5580 5575 5570 5566 5560 5556 5550 5543 5538 5533 5528 5522 5516 5510 5504 5499 5493 5488 5482 5477 5472 5467 5463
5622 5621 5619 5618 5615 5613 5611 5609 5606 5602 5598 5593 5589 5584 5578 5573 5568 5563 5558 5553 5548 5543 5538 5532 5527 5522 5518 5512 5506 5500 5494 5489 5483 5478 5473 5468 5463 5458
5612 5611 5610 5608 5606 5604 5602 5600 5597 5593 5589 5585 5581 5576 5571 5566 5561 5556 5551 5546 5541 5536 5532 5527 5522 5516 5511 5507 5503 5496 5490 5485 5479 5474 5469 5464 5459 5454
5603 5602 5601 5599 5597 5595 5593 5590 5587 5584 5581 5577 5573 5569 5564 5559 5555 5550 5545 5540 5535 5530 5526 5521 5516 5511 5507 5502 5498 5493 5487 5482 5476 5471 5465 5460 5455 5450
5593 5592 5591 5590 5588 5586 5584 5581 5579 5576 5572 5568 5565 5561 5557 5552 5548 5543 5539 5534 5530 5525 5520 5516 5511 5507 5502 5498 5493 5489 5484 5479 5473 5468 5463 5458 5453 5448
5583 5582 5581 5580 5579 5577 5575 5573 5570 5567 5563 5560 5556 5553 5549 5545 5541 5537 5534 5529 5525 5521 5516 5511 5507 5503 5498 5494 5489 5485 5480 5475 5470 5465 5460 5455 5451 5446
5572 5572 5572 5571 5570 5568 5567 5564 5562 5559 5555 5552 5549 5546 5543 5539 5536 5532 5528 5524 5521 5517 5513 5508 5503 5499 5494 5490 5486 5481 5477 5472 5467 5462 5458 5453 5449 5445
5563 5563 5562 5562 5561 5559 5558 5556 5553 5550 5547 5544 5542 5539 5536 5533 5530 5527 5523 5519 5516 5512 5508 5505 5501 5497 5492 5488 5484 5479 5474 5470 5465 5460 5455 5451 5447 5444
5553 5553 5553 5553 5552 5551 5549 5547 5545 5542 5539 5537 5534 5532 5529 5527 5525 5522 5518 5515 5512 5508 5505 5501 5498 5494 5490 5486 5482 5477 5472 5468 5463 5458 5454 5450 5446 5443
5544 5544 5544 5544 5543 5542 5541 5539 5537 5534 5532 5530 5528 5526 5524 5522 5519 5517 5514 5511 5508 5505 5502 5499 5495 5491 5487 5483 5479 5475 5470 5466 5462 5457 5453 5449 5445 5442
5536 5536 5536 5535 5535 5534 5532 5531 5529 5527 5526 5524 5522 5520 5518 5517 5515 5512 5510 5507 5505 5502 5499 5496 5492 5488 5484 5481 5477 5474 5469 5465 5460 5456 5453 5449 5446 5443
5528 5528 5527 5527 5526 5525 5524 5523 5522 5521 5520 5518 5516 5515 5513 5512 5510 5508 5506 5504 5501 5499 5496 5493 5489 5486 5483 5479 5476 5473 5469 5465 5461 5457 5453 5450 5447 5444
5519 5519 5519 5519 5518 5518 5517 5517 5516 5515 5514 5513 5511 5510 5509 5508 5506 5505 5503 5501 5498 5496 5493 5490 5488 5484 5481 5478 5475 5472 5469 5465 5462 5458 5454 5451 5448 5445